Weather History for KLFT - April, 2012

Change the Weather History Date:

Wednesday, April 4, 2012

  Actual Average Record
Temperature  
Mean Temperature 72 °F 66 °F  
Max Temperature 80 °F 77 °F 89 °F (1893)
Min Temperature 63 °F 56 °F 33 °F (1915)
Degree Days  
Heating Degree Days 0 2  
Month to date heating degree days 0 11  
Since 1 July heating degree days 1029 1391  
Cooling Degree Days 7 4  
Month to date cooling degree days 36 14  
Year to date cooling degree days 275 109  
Growing Degree Days 20 (Base 50)    
Moisture  
Dew Point 65 °F    
Average Humidity 79    
Maximum Humidity 93    
Minimum Humidity 64    
Precipitation  
Precipitation 1.48 in 0.12 in 3.01 in (1952)
Month to date precipitation 2.15 0.46  
Year to date precipitation 19.69 14.37  
Snow  
Snow 0.00 in 0.00 in 0.00 in ()
Month to date snowfall 0.0 0.0  
Since 1 July snowfall 0.0 T  
Snow Depth 0.00 in    
Sea Level Pressure  
Sea Level Pressure 29.85 in    
Wind  
Wind Speed 5 mph (ESE)    
Max Wind Speed 29 mph    
Max Gust Speed 37 mph    
Visibility 7 miles    
Events Rain , Thunderstorm    
T = Trace of Precipitation, MM = Missing Value Source: NWS Daily Summary

Daily Weather History Graph

Daily Weather History Graph

Search for Another Location

Airport or City:

Trip Planner

Search our weather history database for the weather conditions in past years. The results will help you decide how hot, cold, wet, or windy it might be!

Date:

Astronomy

Apr. 04, 2012 Rise Set
Actual Time 6:52 AM CDT 7:28 PM CDT
Civil Twilight 6:28 AM CDT 7:53 PM CDT
Nautical Twilight 6:00 AM CDT 8:21 PM CDT
Astronomical Twilight 5:31 AM CDT 8:50 PM CDT
Moon 5:29 PM CDT (4/4) 5:06 AM CDT (4/4)
Length of Visible Light 13h 24m
Length of Day
12h 35m
Waxing Gibbous, 94% of the Moon is Illuminated
Apr 4
Waxing Gibbous
Apr 6
Full
Apr 13
Last Quarter
Apr 21
New
Apr 29
First Quarter

Hourly Weather History & Observations

Time (CDT) Temp. Dew Point Humidity Pressure Visibility Wind Dir Wind Speed Gust Speed Precip Events Conditions
12:53 AM 75.0 °F 72.0 °F 90% 29.86 in 5.0 mi SE 4.6 mph - N/A   Mostly Cloudy
1:17 AM 75.2 °F 71.6 °F 89% 29.85 in 5.0 mi SSE 3.5 mph - N/A   Overcast
1:30 AM 75.2 °F 71.6 °F 89% 29.83 in 4.0 mi SE 4.6 mph - N/A   Overcast
1:45 AM 75.2 °F 73.4 °F 94% 29.83 in 3.0 mi SSE 3.5 mph - 0.03 in Rain Light Rain
1:53 AM 75.0 °F 73.0 °F 94% 29.82 in 4.0 mi South 4.6 mph - 0.03 in Rain Light Rain
2:00 AM 75.2 °F 73.4 °F 94% 29.82 in 5.0 mi South 6.9 mph - 0.00 in Rain Light Rain
2:53 AM 75.9 °F 73.0 °F 91% 29.83 in 5.0 mi ESE 3.5 mph - 0.00 in Thunderstorm Overcast
3:09 AM 66.2 °F 62.6 °F 88% 29.85 in 5.0 mi North 26.5 mph 36.8 mph 0.04 in Rain , Thunderstorm Rain
3:14 AM 64.4 °F 62.6 °F 94% 29.88 in 1.5 mi North 21.9 mph 36.8 mph 0.19 in Rain , Thunderstorm Heavy Thunderstorms and Rain
3:20 AM 64.4 °F 62.6 °F 94% 29.86 in 0.8 mi North 12.7 mph 33.4 mph 0.43 in Rain , Thunderstorm Heavy Thunderstorms and Rain
3:30 AM 62.6 °F 60.8 °F 94% 29.87 in 1.2 mi NE 16.1 mph 33.4 mph 0.60 in Rain , Thunderstorm Heavy Thunderstorms and Rain
3:43 AM 64.4 °F 60.8 °F 88% 29.89 in 1.8 mi North 19.6 mph 32.2 mph 0.81 in Rain , Thunderstorm Heavy Thunderstorms and Rain
3:53 AM 64.4 °F 62.6 °F 94% 29.93 in 2.0 mi Variable 5.8 mph 25.3 mph N/A Rain , Thunderstorm Heavy Thunderstorms and Rain
4:01 AM 64.4 °F 62.6 °F 94% 29.90 in 1.8 mi NE 11.5 mph 18.4 mph 0.13 in Rain , Thunderstorm Heavy Thunderstorms and Rain
4:04 AM 62.6 °F 62.6 °F 100% 29.89 in 2.0 mi NE 12.7 mph 19.6 mph 0.18 in Rain , Thunderstorm Heavy Thunderstorms and Rain
4:12 AM 64.4 °F 62.6 °F 94% 29.92 in 2.0 mi NE 15.0 mph 25.3 mph 0.28 in Rain , Thunderstorm Heavy Thunderstorms and Rain
4:25 AM 64.4 °F 62.6 °F 94% 29.89 in 2.5 mi NNE 19.6 mph 26.5 mph N/A Rain , Thunderstorm Heavy Thunderstorms and Rain
4:33 AM 64.4 °F 60.8 °F 88% 29.89 in 4.0 mi NE 17.3 mph 27.6 mph 0.42 in Rain , Thunderstorm Thunderstorms and Rain
4:53 AM 64.0 °F 61.0 °F 90% 29.88 in 10.0 mi NNE 18.4 mph 25.3 mph 0.43 in Rain , Thunderstorm Light Rain
5:22 AM 64.4 °F 60.8 °F 88% 29.91 in 10.0 mi NE 17.3 mph 21.9 mph 0.00 in   Overcast
5:35 AM 64.4 °F 62.6 °F 94% 29.94 in 10.0 mi NNE 11.5 mph 19.6 mph 0.00 in   Overcast
5:46 AM 64.4 °F 60.8 °F 88% 29.92 in 8.0 mi NE 12.7 mph 19.6 mph 0.03 in Rain , Thunderstorm Thunderstorms and Rain
5:53 AM 64.0 °F 62.1 °F 93% 29.88 in 6.0 mi ENE 13.8 mph 19.6 mph 0.05 in Rain , Thunderstorm Thunderstorms and Rain
6:02 AM 64.4 °F 60.8 °F 88% 29.86 in 10.0 mi ENE 15.0 mph 27.6 mph 0.01 in Rain , Thunderstorm Light Thunderstorms and Rain
6:53 AM 64.9 °F 61.0 °F 87% 29.86 in 10.0 mi East 8.1 mph 21.9 mph 0.01 in Thunderstorm Mostly Cloudy
7:03 AM 64.4 °F 62.6 °F 94% 29.86 in 10.0 mi SE 8.1 mph 17.3 mph N/A   Mostly Cloudy
7:53 AM 64.9 °F 62.1 °F 90% 29.86 in 10.0 mi East 4.6 mph - N/A   Partly Cloudy
8:53 AM 64.0 °F 62.1 °F 93% 29.85 in 10.0 mi ESE 4.6 mph - N/A   Clear
9:53 AM 66.2 °F 62.6 °F 88% 29.88 in 10.0 mi Variable 3.5 mph - N/A   Clear
10:53 AM 68.0 °F 63.0 °F 84% 29.92 in 10.0 mi Calm Calm - N/A   Partly Cloudy
11:53 AM 70.0 °F 63.0 °F 78% 29.89 in 10.0 mi West 4.6 mph - N/A   Clear
12:53 PM 73.9 °F 64.0 °F 71% 29.84 in 10.0 mi Variable 4.6 mph - N/A   Clear
1:53 PM 75.0 °F 64.0 °F 69% 29.83 in 10.0 mi Variable 4.6 mph - N/A   Clear
2:53 PM 77.0 °F 64.9 °F 66% 29.81 in 10.0 mi Calm Calm - N/A   Clear
3:53 PM 79.0 °F 66.0 °F 64% 29.78 in 10.0 mi Calm Calm - N/A   Clear
4:53 PM 79.0 °F 66.9 °F 66% 29.78 in 10.0 mi SSW 4.6 mph - N/A   Scattered Clouds
5:05 PM 78.8 °F 68.0 °F 69% 29.77 in 10.0 mi SSW 5.8 mph - N/A   Mostly Cloudy
5:20 PM 78.8 °F 68.0 °F 69% 29.77 in 10.0 mi Calm Calm - N/A   Scattered Clouds
5:53 PM 79.0 °F 68.0 °F 69% 29.77 in 10.0 mi SW 4.6 mph - N/A   Partly Cloudy
6:53 PM 77.0 °F 68.0 °F 74% 29.78 in 10.0 mi South 5.8 mph - N/A   Mostly Cloudy
7:53 PM 73.9 °F 68.0 °F 82% 29.78 in 10.0 mi South 5.8 mph - N/A   Scattered Clouds
8:00 PM 73.4 °F 68.0 °F 83% 29.78 in 10.0 mi South 6.9 mph - N/A   Mostly Cloudy
8:22 PM 73.4 °F 66.2 °F 78% 29.78 in 10.0 mi South 5.8 mph - N/A   Mostly Cloudy
8:53 PM 73.0 °F 68.0 °F 84% 29.80 in 10.0 mi South 9.2 mph - N/A   Partly Cloudy
9:53 PM 73.0 °F 68.0 °F 84% 29.83 in 10.0 mi SSW 8.1 mph - N/A   Mostly Cloudy
10:53 PM 72.0 °F 68.0 °F 87% 29.80 in 10.0 mi SSW 4.6 mph - N/A   Scattered Clouds
11:53 PM 71.1 °F 69.1 °F 93% 29.77 in 10.0 mi Calm Calm - N/A   Clear